Regional Weather Roundup
Issued by NWS

Home | Current Version | Previous Version | Graphics & Text | Print | Product List | Glossary Off
Versions: 1 2 3 4 5 6 7 8 9 10 11 12 13 14 15 16 17 18 19 20 21 22 23 24 25 26 27 28 29 30 31 32 33 34 35 36 37 38 39 40 41 42 43 44 45 46 47 48 49 50

000
ASUS45 KTFX 241504
RWRMT
MONTANA HOURLY WEATHER ROUNDUP
NATIONAL WEATHER SERVICE GREAT FALLS MT
904 AM MDT THU APR 24 2014

NOTE: "FAIR" INDICATES FEW OR NO CLOUDS BELOW 12000 FEET WITH NO
SIGNIFICANT WEATHER AND/OR OBSTRUCTIONS TO VISIBILITY.

* THESE STATIONS ARE NOT UNDER NWS QUALITY CONTROL. THEY DO NOT
   REPORT WEATHER SUCH AS PRECIPITATION OR FOG.

MTZ001>007-043-241600-
WEST OF THE DIVIDE
CITY           SKY/WX    TMP DP  RH WIND       PRES   REMARKS
KALISPELL      LGT RAIN  39  34  82 CALM      29.79S
MISSOULA       CLOUDY    39  36  89 SE5       29.83S WCI  35
BUTTE          CLOUDY    39  21  48 CALM      29.84S
MULLAN PASS    SNOW      30  28  92 VRB5      29.74R VSB M1/4 WCI  25
* ESSEX        N/A       35  30  82 N/A        N/A
* LINCOLN      N/A       34  32  92 NE1        N/A
* LOOKOUT PASS N/A       33  33 100 N/A        N/A
* POLSON       N/A       38  33  82 N1         N/A
* RONAN APT    CLOUDY    41  36  82 N/A        N/A
* SEELEY LAKE  N/A       33  32  96 N/A        N/A
* THOMP F APT  CLOUDY    32  24  72 E3         N/A
$$

MTZ008-052>055-241600-
SOUTHWEST MONTANA
CITY           SKY/WX    TMP DP  RH WIND       PRES   REMARKS
BOZEMAN        CLOUDY    46  27  48 SE7       29.85F
DILLON         CLOUDY    45  25  45 S13       29.85S
W YELLOWSTONE  N/A       36  25  64 W1         N/A
* THREE FORKS  CLOUDY    45  25  45 S22G30     N/A
* BOULDER HILL N/A       36  21  54 S10        N/A   WCI  29
* MONIDA PASS  N/A       28  22  78 SE14       N/A   WCI  17
* RAYNOLDS PAS N/A       29  15  56 S14        N/A   WCI  18
* WHITEHALL    N/A       45  26  47 SW7G12     N/A
* WISE RIVER   N/A       34  26  73 SE3        N/A
$$

MTZ009>010-012-014-046-048-049-054-241600-
EAST SLOPES AND CENTRAL MONTANA
CITY           SKY/WX    TMP DP  RH WIND       PRES   REMARKS
CUT BANK       PTCLDY    45  27  49 W13       29.74F
GREAT FALLS    PTSUNNY   46  30  54 SW18      29.78F
HELENA         CLOUDY    39  36  89 NW3       29.82F
MALMSTROM AFB  PTCLDY    48  28  46 SW15      29.76F
* CONRAD       PTCLDY    39  30  70 SE5        N/A   WCI  35
* DEARBORN     N/A       42  32  68 S14        N/A
* EAST GLACIER N/A       35  26  70 W24G32     N/A   WCI  23
* MONARCH      N/A       40  20  45 SW14G19    N/A   WCI  32
* PENDROY      N/A       44  27  51 SE9        N/A
* ROGERS PASS  N/A       32  27  82 SE5G11     N/A   WCI  27
* SAINT MARY   N/A       39  24  55 S6G15      N/A   WCI  35
* SWEET GRASS  N/A       42  22  45 W12        N/A
$$

MTZ011-013-016-021-035-040-045-047-050-051-241600-
NORTH CENTRAL MONTANA
CITY           SKY/WX    TMP DP  RH WIND       PRES   REMARKS
HAVRE          SUNNY     45  27  49 SW14      29.78F
LEWISTOWN      PTCLDY    45  28  51 W17       29.80F
* CHESTER      N/A       38  27  65 S2         N/A
* DENTON       N/A       48  27  44 W3G9       N/A
* GEYSER       N/A       46  25  44 SW17       N/A
* JUDITH GAP   N/A       45  26  47 W9         N/A
* LOMA         N/A       41  30  65 W6         N/A
$$

MTZ017>020-022>027-061-062-241600-
NORTHEAST MONTANA
CITY           SKY/WX    TMP DP  RH WIND       PRES   REMARKS
GLASGOW        SUNNY     46  30  54 W13       29.77S
GLENDIVE       SUNNY     48  25  41 W18G26    29.79S
JORDAN         SUNNY     48  25  41 W22       29.79F
SIDNEY         SUNNY     48  28  46 W17       29.76S
WOLF POINT     SUNNY     46  28  50 W15       29.77R
* BEAVER HILL  N/A       46  24  42 W15G20     N/A
* CIRCLE       N/A       45  29  54 SW11G17    N/A
* LINDSAY DVD  N/A       44  24  45 W18G24     N/A
* NAVAJO       N/A       41  33  73 NW13G19    N/A
* SACO         N/A       46  30  54 W14G19     N/A
$$

MTZ028>042-056>058-241600-
SOUTHCENTRAL AND SOUTHEAST MONTANA
CITY           SKY/WX    TMP DP  RH WIND       PRES   REMARKS
BAKER          SUNNY     48  25  41 NW21      29.82S
BILLINGS       SUNNY     46  27  48 VRB5      29.85S
LIVINGSTON     PTSUNNY   45  21  38 SW29G47   29.80F
MILES CITY     SUNNY     52  25  35 NW17      29.82F
* LAUREL APT   SUNNY     43  19  38 S5         N/A
* ROUNDUP APT  SUNNY     48  27  44 W15G21     N/A
* HYSHAM       N/A       47  28  48 W8         N/A
* REED POINT   N/A       43  31  63 E2         N/A
* ROSCOE HILL  N/A       46  14  27 SW8G21     N/A
$$

REGIONAL REPORTS...DAKOTAS
CITY           SKY/WX    TMP DP  RH WIND       PRES   REMARKS
WILLISTON      SUNNY     46  30  54 W10       29.73R
DICKINSON      SUNNY     52  25  35 W22       29.75R
CROSBY         CLOUDY    43  41  93 W10       29.70R
TIOGA          SUNNY     45  32  60 W16       29.72S
WATFORD CITY   SUNNY     48  28  46 W17G23    29.71S
BISMARCK       SUNNY     52  28  40 W14       29.75F
GRAND FORKS    LGT RAIN  41  39  93 SE13      29.75F
FARGO          LGT RAIN  43  39  86 SE6       29.76S
BUFFALO SD     PTSUNNY   48  30  50 W26       29.77F
RAPID CITY     SUNNY     54  21  27 NW5       29.85F
$$

REGIONAL REPORTS...WYOMING/IDAHO/WASHINGTON
CITY           SKY/WX    TMP DP  RH WIND       PRES   REMARKS
GILLETTE       SUNNY     48  21  34 SW15      29.88R
SHERIDAN       SUNNY     45  25  45 S5        29.88S
CODY           PTCLDY    46  19  34 W13G26    29.88F
YELLOWSTONE LA CLOUDY    32  19  59 VRB7G17   29.99F WCI  25
SALMON         CLOUDY    43  34  71 N3        29.84F
MULLAN PASS    SNOW      30  28  92 VRB5      29.74S VSB M1/4 WCI  25
SPOKANE        LGT RAIN  45  43  93 S16G26    29.72S VSB 3

$$




USA.gov is the U.S. government's official web portal to all federal, state and local government web resources and services.